Showing default

TRAAC, 205

Orbit data source: Space-Track

TRAAC, 205 is a payload satellite owned by USN BuWeps (US) in LEO that was launched on Wed, 15 Nov 1961 UTC via a THOR ABLESTAR launch vehicle from the Air Force Eastern Test Range (AFETR). Payload-class satellites include a variety of spacecraft equipped with specific instruments for various scientific and technological missions. These include communications satellites like Starlink; space stations such as the ISS; scientific satellites like the Hubble; Earth observation satellites from companies like Planet Labs, Umbra, and HawkEye 360; GPS; miniature CubeSats for education and research; and military/defense satellites.

Loading next visibility...
Identifier
205, 1961-031B
Orbit
LEO
Country
Flag of USUS
Related business
Manufacturer
APL
Mission
Spacecraft
Bus & Motor
TRANSIT 4, Unknown motor
Mass
105 kg wet, 105 kg dry
Launch date (UTC)
1961-11-15 (64 years ago)
Launch vehicle
THOR ABLESTAR
Launch site
Air Force Eastern Test Range (AFETR)
Object type
Payload
Rocket body
Debris
Shape & HBR
Unknown
Radar Cross Section
Medium (>0.1 m² and <1 m²)

Expand to show TLE details & history
Last TLE update: 12 hours ago

TLE from 12 hours ago
0 TRAAC
1   205U 61031B   26110.26157823  .00000025  00000-0  10993-5 0  9996
2   205  32.4407  87.7932 0102185 253.5687 105.3681 13.62570793211166
Epoch: 2026-04-20T06:16Z
TLE epoch observation values (Epoch: 2026-04-20T06:16:40.359Z)
Latitude
-0.00001°
Longitude
145.27077°
Altitude
1,045.868 km
Speed
7.321 km/s
True Right ascension
05h 51m 10s
True Declination
0° 00' 00"
Sunlit
Object was in daylight at epoch
Visualization orbit readout
Latitude
Unknown
Longitude
Unknown
Altitude
Unknown
Speed
Unknown
Apparent Right ascension
Unknown
Apparent Declination
Unknown
Sunlit
N/A
Visualization observer readout
Local Sidereal Time
01:20:52
Azimuth
Unknown
Elevation
Unknown
Doppler factor
Unknown
Orbital elements
Apogee altitude
1,105.448 km
Perigee altitude
954.053 km
Semi-major axis
7,407.888 km
Eccentricity
0.01022
Inclination
32.4407°
RAAN
87.7932°
Arg. of periapsis
253.5687°
True anomaly
106.4933°
Mean anomaly
105.3681°
Eccentric anomaly
105.93109°
Mean motion
3.40409 °/min
Orbital period
105.76 mins
BSTAR
0.0000010993
Loading maneuver chart data...
Computing Atmospheric mass density...
Loading historical data...
Loading historical data...
Loading historical data...
Loading historical data...
Loading historical data...
Loading historical data...
Loading historical data...
Other satellites on launch #31 in the year 1961 (1961-11-15 UTC)

Documentation

Showing up to 5 results
|